11-01-2023, 00:00:04,    244,    5.0,    7.5,   0.00,   0.00, 1002.0,   83.1, -999.0
11-01-2023, 00:00:14,    235,    3.2,    7.5,   0.00,   0.00, 1002.0,   83.0, -999.0
11-01-2023, 00:00:24,    254,    2.5,    7.5,   0.00,   0.00, 1002.0,   83.0, -999.0
11-01-2023, 00:00:34,    258,    3.4,    7.5,   0.00,   0.00, 1002.0,   83.0, -999.0
11-01-2023, 00:00:43,    250,    2.2,    7.5,   0.00,   0.00, 1002.0,   82.9, -999.0
11-01-2023, 00:00:54,    206,    2.5,    7.5,   0.00,   0.00, 1002.0,   83.0, -999.0
11-01-2023, 00:01:04,    219,    2.9,    7.5,   0.00,   0.00, 1002.0,   83.1, -999.0
11-01-2023, 00:01:13,    222,    3.1,    7.5,   0.00,   0.00, 1002.0,   83.0, -999.0
11-01-2023, 00:01:24,    232,    1.3,    7.5,   0.00,   0.00, 1002.0,   83.0, -999.0
11-01-2023, 00:01:34,    260,    2.8,    7.5,   0.00,   0.00, 1002.0,   83.1, -999.0
11-01-2023, 00:01:44,    230,    1.9,    7.5,   0.00,   0.00, 1002.0,   83.1, -999.0
11-01-2023, 00:01:53,    249,    1.4,    7.5,   0.00,   0.00, 1002.0,   83.0, -999.0
11-01-2023, 00:02:04,    239,    4.7,    7.5,   0.00,   0.00, 1002.0,   83.0, -999.0
11-01-2023, 00:02:14,    230,    1.7,    7.4,   0.00,   0.00, 1002.0,   83.0, -999.0
11-01-2023, 00:02:23,    229,    0.5,    7.4,   0.00,   0.00, 1002.0,   83.0, -999.0
11-01-2023, 00:02:33,    262,    2.6,    7.4,   0.00,   0.00, 1002.0,   83.1, -999.0
11-01-2023, 00:02:44,    172,    4.4,    7.4,   0.00,   0.00, 1002.0,   83.1, -999.0
11-01-2023, 00:02:53,    172,    0.8,    7.5,   0.00,   0.00, 1002.0,   83.0, -999.0
11-01-2023, 00:03:03,    237,    0.7,    7.4,   0.00,   0.00, 1002.0,   82.8, -999.0
11-01-2023, 00:03:13,    233,    2.1,    7.5,   0.00,   0.00, 1002.0,   82.9, -999.0
11-01-2023, 00:03:24,    206,    2.8,    7.5,   0.00,   0.00, 1002.1,   82.9, -999.0
11-01-2023, 00:03:33,    245,    1.2,    7.5,   0.00,   0.00, 1002.0,   82.8, -999.0
11-01-2023, 00:03:43,    258,    3.3,    7.5,   0.00,   0.00, 1002.1,   83.0, -999.0
11-01-2023, 00:03:53,    263,    2.1,    7.4,   0.00,   0.00, 1002.1,   82.9, -999.0
11-01-2023, 00:04:03,    243,    3.1,    7.5,   0.00,   0.00, 1002.1,   82.8, -999.0
11-01-2023, 00:04:13,    225,    3.7,    7.5,   0.00,   0.00, 1002.0,   82.9, -999.0
11-01-2023, 00:04:23,    241,    3.5,    7.5,   0.00,   0.00, 1002.0,   82.8, -999.0
11-01-2023, 00:04:33,    266,    3.5,    7.4,   0.00,   0.00, 1002.1,   82.8, -999.0
11-01-2023, 00:04:43,    230,    2.7,    7.4,   0.00,   0.00, 1002.1,   82.8, -999.0
11-01-2023, 00:04:53,    204,    5.0,    7.5,   0.00,   0.00, 1002.1,   82.9, -999.0
11-01-2023, 00:05:03,    257,    3.9,    7.5,   0.00,   0.00, 1002.1,   82.8, -999.0
11-01-2023, 00:05:13,    253,    2.1,    7.4,   0.00,   0.00, 1002.0,   82.7, -999.0
11-01-2023, 00:05:23,    213,    2.0,    7.4,   0.00,   0.00, 1002.1,   82.7, -999.0
11-01-2023, 00:05:33,    258,    2.7,    7.5,   0.00,   0.00, 1002.1,   82.8, -999.0
11-01-2023, 00:05:43,    214,    1.0,    7.5,   0.00,   0.00, 1002.1,   82.8, -999.0
11-01-2023, 00:05:53,    232,    2.1,    7.5,   0.00,   0.00, 1002.1,   82.7, -999.0
11-01-2023, 00:06:03,    205,    3.9,    7.5,   0.00,   0.00, 1002.1,   82.6, -999.0
11-01-2023, 00:06:13,    206,    2.5,    7.5,   0.00,   0.00, 1002.0,   82.5, -999.0
11-01-2023, 00:06:23,    230,    2.1,    7.5,   0.00,   0.00, 1002.0,   82.4, -999.0
11-01-2023, 00:06:33,    225,    2.3,    7.4,   0.00,   0.00, 1002.1,   82.5, -999.0
11-01-2023, 00:06:43,    234,    2.8,    7.5,   0.00,   0.00, 1002.0,   82.4, -999.0
11-01-2023, 00:06:53,    230,    2.6,    7.5,   0.00,   0.00, 1002.0,   82.4, -999.0
11-01-2023, 00:07:03,    251,    2.3,    7.5,   0.00,   0.00, 1002.1,   82.5, -999.0
11-01-2023, 00:07:13,    250,    0.4,    7.4,   0.00,   0.00, 1002.0,   82.3, -999.0
11-01-2023, 00:07:23,    250,    0.0,    7.4,   0.00,   0.00, 1002.0,   82.1, -999.0
11-01-2023, 00:07:33,    258,    0.7,    7.4,   0.00,   0.00, 1002.1,   82.4, -999.0
11-01-2023, 00:07:43,    256,    0.4,    7.4,   0.00,   0.00, 1002.1,   82.3, -999.0
11-01-2023, 00:07:53,    199,    0.2,    7.4,   0.00,   0.00, 1002.1,   82.3, -999.0
11-01-2023, 00:08:03,    199,    0.0,    7.3,   0.00,   0.00, 1002.0,   82.3, -999.0
11-01-2023, 00:08:13,    199,    0.0,    7.3,   0.00,   0.00, 1002.0,   82.3, -999.0
11-01-2023, 00:08:23,    221,    0.3,    7.3,   0.00,   0.00, 1002.0,   82.5, -999.0
11-01-2023, 00:08:33,    223,    0.2,    7.3,   0.00,   0.00, 1002.1,   82.6, -999.0
11-01-2023, 00:08:43,    243,    2.5,    7.4,   0.00,   0.00, 1002.1,   82.8, -999.0
11-01-2023, 00:08:53,    191,    3.0,    7.4,   0.00,   0.00, 1002.1,   82.7, -999.0
11-01-2023, 00:09:03,    235,    2.0,    7.4,   0.00,   0.00, 1002.1,   82.8, -999.0
11-01-2023, 00:09:13,    233,    2.3,    7.4,   0.00,   0.00, 1002.1,   82.9, -999.0
11-01-2023, 00:09:23,    235,    0.5,    7.4,   0.00,   0.00, 1002.1,   82.9, -999.0
11-01-2023, 00:09:32,    248,    2.6,    7.4,   0.00,   0.00, 1002.1,   82.9, -999.0
11-01-2023, 00:09:43,    218,    2.3,    7.4,   0.00,   0.00, 1002.1,   82.9, -999.0
11-01-2023, 00:09:53,    272,    4.3,    7.4,   0.00,   0.00, 1002.1,   82.8, -999.0
11-01-2023, 00:10:02,    255,    3.6,    7.3,   0.00,   0.00, 1002.1,   82.8, -999.0
11-01-2023, 00:10:12,    235,    0.8,    7.3,   0.00,   0.00, 1002.1,   82.8, -999.0
11-01-2023, 00:10:23,    245,    5.6,    7.4,   0.00,   0.00, 1002.1,   82.8, -999.0
11-01-2023, 00:10:33,    249,    2.9,    7.4,   0.00,   0.00, 1002.1,   82.9, -999.0
11-01-2023, 00:10:42,    246,    5.5,    7.5,   0.00,   0.00, 1002.1,   83.0, -999.0
11-01-2023, 00:10:53,    251,    5.2,    7.5,   0.00,   0.00, 1002.2,   82.9, -999.0
11-01-2023, 00:11:03,    236,    2.2,    7.5,   0.00,   0.00, 1002.1,   82.9, -999.0
11-01-2023, 00:11:12,    243,    1.9,    7.4,   0.00,   0.00, 1002.1,   82.8, -999.0
11-01-2023, 00:11:22,    249,    2.3,    7.5,   0.00,   0.00, 1002.2,   82.7, -999.0
11-01-2023, 00:11:33,    236,    1.9,    7.5,   0.00,   0.00, 1002.1,   82.7, -999.0
11-01-2023, 00:11:42,    236,    0.1,    7.4,   0.00,   0.00, 1002.1,   82.5, -999.0
11-01-2023, 00:11:52,    236,    0.0,    7.3,   0.00,   0.00, 1002.0,   82.3, -999.0
11-01-2023, 00:12:02,    230,    0.1,    7.4,   0.00,   0.00, 1002.1,   82.5, -999.0
11-01-2023, 00:12:13,    254,    0.3,    7.4,   0.00,   0.00, 1002.1,   82.6, -999.0
11-01-2023, 00:12:22,    266,    1.1,    7.5,   0.00,   0.00, 1002.1,   82.7, -999.0
11-01-2023, 00:12:32,    264,    0.6,    7.4,   0.00,   0.00, 1002.1,   82.6, -999.0
11-01-2023, 00:12:42,    219,    1.5,    7.5,   0.00,   0.00, 1002.1,   82.7, -999.0
11-01-2023, 00:12:52,    249,    3.1,    7.5,   0.00,   0.00, 1002.1,   82.7, -999.0
11-01-2023, 00:13:02,    251,    0.8,    7.5,   0.00,   0.00, 1002.1,   82.7, -999.0
11-01-2023, 00:13:12,    227,    2.4,    7.4,   0.00,   0.00, 1002.2,   82.7, -999.0
11-01-2023, 00:13:22,    222,    0.6,    7.4,   0.00,   0.00, 1002.2,   82.7, -999.0
11-01-2023, 00:13:32,    240,    0.6,    7.4,   0.00,   0.00, 1002.1,   82.8, -999.0
11-01-2023, 00:13:42,    240,    0.1,    7.4,   0.00,   0.00, 1002.1,   82.6, -999.0
11-01-2023, 00:13:52,    230,    3.4,    7.4,   0.00,   0.00, 1002.1,   82.7, -999.0
11-01-2023, 00:14:02,    250,    3.1,    7.4,   0.00,   0.00, 1002.1,   82.8, -999.0
11-01-2023, 00:14:14,    255,    2.3,    7.4,   0.00,   0.00, 1002.2,   82.8, -999.0
11-01-2023, 00:14:22,    235,    3.5,    7.4,   0.00,   0.00, 1002.2,   82.8, -999.0
11-01-2023, 00:14:32,    262,    2.2,    7.5,   0.00,   0.00, 1002.2,   82.8, -999.0
11-01-2023, 00:14:42,    252,    0.9,    7.3,   0.00,   0.00, 1002.1,   82.9, -999.0
11-01-2023, 00:14:52,    257,    0.3,    7.4,   0.00,   0.00, 1002.1,   82.7, -999.0
11-01-2023, 00:15:02,    236,    1.0,    7.5,   0.00,   0.00, 1002.1,   82.8, -999.0
11-01-2023, 00:15:12,    238,    0.8,    7.4,   0.00,   0.00, 1002.2,   82.8, -999.0
11-01-2023, 00:15:22,    227,    0.6,    7.4,   0.00,   0.00, 1002.1,   82.8, -999.0
11-01-2023, 00:15:32,    222,    0.3,    7.4,   0.00,   0.00, 1002.1,   82.9, -999.0
11-01-2023, 00:15:42,    234,    1.7,    7.4,   0.00,   0.00, 1002.2,   83.0, -999.0
11-01-2023, 00:15:52,    240,    3.1,    7.4,   0.00,   0.00, 1002.2,   82.9, -999.0
11-01-2023, 00:16:02,    235,    3.3,    7.4,   0.00,   0.00, 1002.2,   82.9, -999.0
11-01-2023, 00:16:12,    234,    1.0,    7.4,   0.00,   0.00, 1002.1,   82.8, -999.0
11-01-2023, 00:16:22,    232,    2.2,    7.3,   0.00,   0.00, 1002.1,   82.7, -999.0
11-01-2023, 00:16:32,    259,    1.6,    7.4,   0.00,   0.00, 1002.1,   82.9, -999.0
11-01-2023, 00:16:42,    260,    1.4,    7.4,   0.00,   0.00, 1002.1,   82.9, -999.0
11-01-2023, 00:16:52,    257,    0.5,    7.4,   0.00,   0.00, 1002.2,   82.9, -999.0
11-01-2023, 00:17:02,    257,    0.4,    7.4,   0.00,   0.00, 1002.1,   82.8, -999.0
11-01-2023, 00:17:12,    221,    1.7,    7.4,   0.00,   0.00, 1002.1,   82.8, -999.0
11-01-2023, 00:17:22,    229,    2.1,    7.4,   0.00,   0.00, 1002.1,   83.0, -999.0
11-01-2023, 00:17:32,    225,    0.4,    7.4,   0.00,   0.00, 1002.1,   83.1, -999.0
11-01-2023, 00:17:42,    225,    0.0,    7.3,   0.00,   0.00, 1002.0,   82.7, -999.0
11-01-2023, 00:17:52,    226,    0.0,    7.3,   0.00,   0.00, 1002.1,   82.8, -999.0
11-01-2023, 00:18:02,    258,    2.0,    7.3,   0.00,   0.00, 1002.1,   83.0, -999.0
11-01-2023, 00:18:12,    255,    2.5,    7.4,   0.00,   0.00, 1002.2,   83.0, -999.0
11-01-2023, 00:18:21,    261,    3.6,    7.4,   0.00,   0.00, 1002.1,   83.1, -999.0
11-01-2023, 00:18:32,    254,    3.0,    7.3,   0.00,   0.00, 1002.1,   83.0, -999.0
11-01-2023, 00:18:42,    236,    1.3,    7.4,   0.00,   0.00, 1002.1,   83.1, -999.0
11-01-2023, 00:18:52,    249,    2.0,    7.4,   0.00,   0.00, 1002.1,   83.2, -999.0
11-01-2023, 00:19:01,    250,    1.4,    7.4,   0.00,   0.00, 1002.1,   83.2, -999.0
11-01-2023, 00:19:12,    250,    0.7,    7.3,   0.00,   0.00, 1002.1,   83.1, -999.0
11-01-2023, 00:19:22,    250,    0.0,    7.3,   0.00,   0.00, 1002.1,   82.9, -999.0
11-01-2023, 00:19:31,    220,    1.2,    7.3,   0.00,   0.00, 1002.1,   83.3, -999.0
11-01-2023, 00:19:41,    248,    2.3,    7.3,   0.00,   0.00, 1002.2,   83.4, -999.0
11-01-2023, 00:19:52,    255,    4.3,    7.3,   0.00,   0.00, 1002.2,   83.5, -999.0
11-01-2023, 00:20:01,    224,    4.4,    7.3,   0.00,   0.00, 1002.2,   83.5, -999.0
11-01-2023, 00:20:11,    243,    2.7,    7.3,   0.00,   0.00, 1002.1,   83.4, -999.0
11-01-2023, 00:20:22,    259,    4.6,    7.3,   0.00,   0.00, 1002.2,   83.4, -999.0
11-01-2023, 00:20:32,    253,    4.1,    7.4,   0.00,   0.00, 1002.2,   83.4, -999.0
11-01-2023, 00:20:41,    242,    4.2,    7.4,   0.00,   0.00, 1002.1,   83.3, -999.0
11-01-2023, 00:20:51,    253,    4.3,    7.4,   0.00,   0.00, 1002.1,   83.3, -999.0
11-01-2023, 00:21:02,    255,    2.7,    7.4,   0.00,   0.00, 1002.1,   83.3, -999.0
11-01-2023, 00:21:11,    250,    2.3,    7.4,   0.00,   0.00, 1002.2,   83.3, -999.0
11-01-2023, 00:21:21,    232,    1.5,    7.4,   0.00,   0.00, 1002.1,   83.3, -999.0
11-01-2023, 00:21:31,    234,    0.7,    7.4,   0.00,   0.00, 1002.1,   83.2, -999.0
11-01-2023, 00:21:41,    233,    0.0,    7.3,   0.00,   0.00, 1002.0,   83.0, -999.0
11-01-2023, 00:21:51,    234,    0.0,    7.3,   0.00,   0.00, 1002.1,   83.1, -999.0
11-01-2023, 00:22:01,    234,    0.0,    7.3,   0.00,   0.00, 1002.0,   82.8, -999.0
11-01-2023, 00:22:11,    234,    0.0,    7.3,   0.00,   0.00, 1002.0,   82.8, -999.0
11-01-2023, 00:22:21,    235,    1.3,    7.3,   0.00,   0.00, 1002.1,   83.2, -999.0
11-01-2023, 00:22:31,    263,    0.1,    7.3,   0.00,   0.00, 1002.1,   83.1, -999.0
11-01-2023, 00:22:41,    268,    0.3,    7.3,   0.00,   0.00, 1002.1,   83.2, -999.0
11-01-2023, 00:22:51,    267,    0.0,    7.2,   0.00,   0.00, 1002.0,   83.0, -999.0
11-01-2023, 00:23:01,    267,    0.0,    7.2,   0.00,   0.00, 1002.0,   82.9, -999.0
11-01-2023, 00:23:11,    267,    0.0,    7.2,   0.00,   0.00, 1002.0,   83.0, -999.0
11-01-2023, 00:23:21,    267,    0.0,    7.2,   0.00,   0.00, 1002.0,   83.0, -999.0
11-01-2023, 00:23:31,    267,    0.2,    7.2,   0.00,   0.00, 1002.1,   83.3, -999.0
11-01-2023, 00:23:41,    268,    0.3,    7.2,   0.00,   0.00, 1002.1,   83.3, -999.0
11-01-2023, 00:23:51,    223,    0.6,    7.2,   0.00,   0.00, 1002.1,   83.4, -999.0
11-01-2023, 00:24:01,    234,    0.8,    7.2,   0.00,   0.00, 1002.1,   83.4, -999.0
11-01-2023, 00:24:11,    236,    1.3,    7.3,   0.00,   0.00, 1002.1,   83.6, -999.0
11-01-2023, 00:24:21,    242,    0.7,    7.3,   0.00,   0.00, 1002.1,   83.7, -999.0
11-01-2023, 00:24:31,    239,    3.1,    7.3,   0.00,   0.00, 1002.1,   83.7, -999.0
11-01-2023, 00:24:41,    234,    2.0,    7.3,   0.00,   0.00, 1002.1,   83.8, -999.0
11-01-2023, 00:24:51,    237,    1.9,    7.3,   0.00,   0.00, 1002.2,   83.7, -999.0
11-01-2023, 00:25:01,    237,    0.8,    7.3,   0.00,   0.00, 1002.1,   83.7, -999.0
11-01-2023, 00:25:11,    236,    0.7,    7.3,   0.00,   0.00, 1002.2,   83.6, -999.0
11-01-2023, 00:25:21,    243,    1.1,    7.3,   0.00,   0.00, 1002.1,   83.6, -999.0
11-01-2023, 00:25:31,    238,    1.6,    7.3,   0.00,   0.00, 1002.1,   83.7, -999.0
11-01-2023, 00:25:41,    238,    0.9,    7.3,   0.00,   0.00, 1002.1,   83.7, -999.0
11-01-2023, 00:25:51,    211,    0.9,    7.1,   0.00,   0.00, 1002.1,   83.8, -999.0
11-01-2023, 00:26:01,    219,    0.7,    7.3,   0.00,   0.00, 1002.1,   83.8, -999.0
11-01-2023, 00:26:11,    224,    0.6,    7.3,   0.00,   0.00, 1002.1,   83.8, -999.0
11-01-2023, 00:26:21,    224,    0.0,    7.2,   0.00,   0.00, 1002.1,   83.6, -999.0
11-01-2023, 00:26:31,    231,    1.0,    7.3,   0.00,   0.00, 1002.1,   83.8, -999.0
11-01-2023, 00:26:40,    230,    2.4,    7.4,   0.00,   0.00, 1002.2,   83.8, -999.0
11-01-2023, 00:26:51,    241,    1.1,    7.3,   0.00,   0.00, 1002.1,   83.7, -999.0
11-01-2023, 00:27:01,    241,    0.0,    7.2,   0.00,   0.00, 1002.1,   83.5, -999.0
11-01-2023, 00:27:11,    190,    1.5,    7.2,   0.00,   0.00, 1002.1,   83.7, -999.0
11-01-2023, 00:27:20,    204,    1.2,    7.3,   0.00,   0.00, 1002.2,   83.8, -999.0
11-01-2023, 00:27:31,    248,    0.4,    7.3,   0.00,   0.00, 1002.1,   83.6, -999.0
11-01-2023, 00:27:41,    253,    1.4,    7.3,   0.00,   0.00, 1002.1,   83.7, -999.0
11-01-2023, 00:27:50,    219,    0.4,    7.3,   0.00,   0.00, 1002.1,   83.5, -999.0
11-01-2023, 00:28:01,    166,    0.9,    7.3,   0.00,   0.00, 1002.1,   83.5, -999.0
11-01-2023, 00:28:11,    254,    1.3,    7.3,   0.00,   0.00, 1002.2,   83.7, -999.0
11-01-2023, 00:28:20,    254,    2.8,    7.2,   0.00,   0.00, 1002.2,   83.7, -999.0
11-01-2023, 00:28:30,    235,    2.9,    7.3,   0.00,   0.00, 1002.2,   83.7, -999.0
11-01-2023, 00:28:41,    236,    0.5,    7.2,   0.00,   0.00, 1002.2,   83.7, -999.0
11-01-2023, 00:28:51,    236,    0.0,    7.1,   0.00,   0.00, 1002.1,   83.4, -999.0
11-01-2023, 00:29:00,    236,    0.5,    7.2,   0.00,   0.00, 1002.1,   83.6, -999.0
11-01-2023, 00:29:10,    236,    0.1,    7.2,   0.00,   0.00, 1002.1,   83.6, -999.0
11-01-2023, 00:29:21,    230,    0.0,    7.1,   0.00,   0.00, 1002.1,   83.5, -999.0
11-01-2023, 00:29:30,    229,    0.9,    7.2,   0.00,   0.00, 1002.3,   83.8, -999.0
11-01-2023, 00:29:40,    229,    0.2,    7.2,   0.00,   0.00, 1002.1,   83.6, -999.0
11-01-2023, 00:29:50,    233,    0.7,    7.2,   0.00,   0.00, 1002.2,   83.9, -999.0
11-01-2023, 00:30:00,    259,    2.9,    7.3,   0.00,   0.00, 1002.2,   84.0, -999.0
11-01-2023, 00:30:10,    234,    2.9,    7.3,   0.00,   0.00, 1002.2,   84.1, -999.0
11-01-2023, 00:30:20,    263,    0.8,    7.2,   0.00,   0.00, 1002.2,   84.0, -999.0
11-01-2023, 00:30:30,    261,    2.7,    7.3,   0.00,   0.00, 1002.2,   84.1, -999.0
11-01-2023, 00:30:40,    261,    1.2,    7.3,   0.00,   0.00, 1002.2,   83.9, -999.0
11-01-2023, 00:30:50,    230,    1.9,    7.3,   0.00,   0.00, 1002.3,   83.8, -999.0
11-01-2023, 00:31:00,    230,    0.2,    7.1,   0.00,   0.00, 1002.2,   83.7, -999.0
11-01-2023, 00:31:10,    253,    1.8,    7.2,   0.00,   0.00, 1002.3,   83.8, -999.0
11-01-2023, 00:31:20,    230,    1.4,    7.3,   0.00,   0.00, 1002.3,   83.8, -999.0
11-01-2023, 00:31:30,    234,    3.1,    7.3,   0.00,   0.00, 1002.3,   83.9, -999.0
11-01-2023, 00:31:40,    229,    2.8,    7.3,   0.00,   0.00, 1002.2,   83.9, -999.0
11-01-2023, 00:31:50,    230,    1.0,    7.3,   0.00,   0.00, 1002.2,   84.0, -999.0
11-01-2023, 00:32:00,    218,    1.2,    7.3,   0.00,   0.00, 1002.2,   83.9, -999.0
11-01-2023, 00:32:10,    220,    1.4,    7.3,   0.00,   0.00, 1002.3,   84.0, -999.0
11-01-2023, 00:32:20,    226,    1.2,    7.3,   0.00,   0.00, 1002.3,   83.9, -999.0
11-01-2023, 00:32:30,    256,    2.3,    7.2,   0.00,   0.00, 1002.3,   83.9, -999.0
11-01-2023, 00:32:40,    264,    1.1,    7.3,   0.00,   0.00, 1002.2,   83.8, -999.0
11-01-2023, 00:32:50,    253,    1.6,    7.3,   0.00,   0.00, 1002.3,   83.8, -999.0
11-01-2023, 00:33:00,    249,    1.5,    7.3,   0.00,   0.00, 1002.2,   83.6, -999.0
11-01-2023, 00:33:10,    251,    0.0,    7.3,   0.00,   0.00, 1002.1,   83.4, -999.0
11-01-2023, 00:33:20,    249,    0.0,    7.2,   0.00,   0.00, 1002.1,   83.3, -999.0
11-01-2023, 00:33:30,    241,    0.0,    7.2,   0.00,   0.00, 1002.1,   83.3, -999.0
11-01-2023, 00:33:40,    248,    0.2,    7.2,   0.00,   0.00, 1002.1,   83.6, -999.0
11-01-2023, 00:33:50,    240,    1.2,    7.3,   0.00,   0.00, 1002.2,   83.6, -999.0
11-01-2023, 00:34:00,    203,    0.7,    7.2,   0.00,   0.00, 1002.2,   83.6, -999.0
11-01-2023, 00:34:10,    277,    0.8,    7.2,   0.00,   0.00, 1002.2,   83.7, -999.0
11-01-2023, 00:34:20,    230,    1.4,    7.2,   0.00,   0.00, 1002.2,   83.8, -999.0
11-01-2023, 00:34:30,    254,    2.7,    7.3,   0.00,   0.00, 1002.3,   83.8, -999.0
11-01-2023, 00:34:40,    254,    0.6,    7.3,   0.00,   0.00, 1002.3,   83.8, -999.0
11-01-2023, 00:34:50,    253,    0.5,    7.3,   0.00,   0.00, 1002.3,   83.8, -999.0
11-01-2023, 00:35:00,    255,    3.5,    7.3,   0.00,   0.00, 1002.3,   83.8, -999.0
11-01-2023, 00:35:10,    253,    4.6,    7.3,   0.00,   0.00, 1002.3,   83.7, -999.0
11-01-2023, 00:35:20,    259,    4.4,    7.3,   0.00,   0.00, 1002.3,   83.8, -999.0
11-01-2023, 00:35:29,    218,    2.3,    7.3,   0.00,   0.00, 1002.3,   83.7, -999.0
11-01-2023, 00:35:40,    226,    0.9,    7.2,   0.00,   0.00, 1002.3,   83.7, -999.0
11-01-2023, 00:35:50,    234,    0.1,    7.2,   0.00,   0.00, 1002.2,   83.5, -999.0
11-01-2023, 00:36:00,    261,    0.7,    7.2,   0.00,   0.00, 1002.3,   83.6, -999.0
11-01-2023, 00:36:10,    251,    3.1,    7.2,   0.00,   0.00, 1002.3,   83.7, -999.0
11-01-2023, 00:36:20,    221,    0.7,    7.3,   0.00,   0.00, 1002.3,   83.6, -999.0
11-01-2023, 00:36:30,    222,    0.6,    7.3,   0.00,   0.00, 1002.3,   83.6, -999.0
11-01-2023, 00:36:39,    225,    0.1,    7.2,   0.00,   0.00, 1002.3,   83.6, -999.0
11-01-2023, 00:36:50,    227,    0.5,    7.2,   0.00,   0.00, 1002.3,   83.7, -999.0
11-01-2023, 00:37:00,    215,    0.8,    7.2,   0.00,   0.00, 1002.2,   83.7, -999.0
11-01-2023, 00:37:09,    182,    1.5,    7.3,   0.00,   0.00, 1002.3,   83.8, -999.0
11-01-2023, 00:37:19,    182,    0.0,    7.2,   0.00,   0.00, 1002.1,   83.5, -999.0
11-01-2023, 00:37:30,    182,    0.0,    7.2,   0.00,   0.00, 1002.1,   83.5, -999.0
11-01-2023, 00:37:40,    182,    0.0,    7.2,   0.00,   0.00, 1002.1,   83.4, -999.0
11-01-2023, 00:37:49,    184,    0.0,    7.2,   0.00,   0.00, 1002.1,   83.5, -999.0
11-01-2023, 00:37:59,    187,    0.0,    7.2,   0.00,   0.00, 1002.1,   83.6, -999.0
11-01-2023, 00:38:10,    187,    0.0,    7.2,   0.00,   0.00, 1002.2,   83.7, -999.0
11-01-2023, 00:38:19,    190,    0.0,    7.1,   0.00,   0.00, 1002.2,   83.7, -999.0
11-01-2023, 00:38:29,    195,    0.5,    7.2,   0.00,   0.00, 1002.3,   84.0, -999.0
11-01-2023, 00:38:39,    212,    3.6,    7.3,   0.00,   0.00, 1002.3,   84.1, -999.0
11-01-2023, 00:38:50,    268,    1.2,    7.3,   0.00,   0.00, 1002.3,   84.0, -999.0
11-01-2023, 00:38:59,    251,    2.5,    7.3,   0.00,   0.00, 1002.3,   83.8, -999.0
11-01-2023, 00:39:09,    197,    2.0,    7.2,   0.00,   0.00, 1002.3,   83.7, -999.0
11-01-2023, 00:39:19,    264,    1.3,    7.2,   0.00,   0.00, 1002.3,   83.6, -999.0
11-01-2023, 00:39:29,    284,    1.8,    7.3,   0.00,   0.00, 1002.3,   83.7, -999.0
11-01-2023, 00:39:39,    281,    0.2,    7.3,   0.00,   0.00, 1002.3,   83.6, -999.0
11-01-2023, 00:39:49,    281,    0.0,    7.2,   0.00,   0.00, 1002.2,   83.3, -999.0
11-01-2023, 00:39:59,    282,    0.1,    7.2,   0.00,   0.00, 1002.3,   83.5, -999.0
11-01-2023, 00:40:09,    227,    0.7,    7.2,   0.00,   0.00, 1002.3,   83.6, -999.0
11-01-2023, 00:40:19,    242,    1.8,    7.2,   0.00,   0.00, 1002.3,   83.8, -999.0
11-01-2023, 00:40:29,    242,    1.7,    7.2,   0.00,   0.00, 1002.4,   83.8, -999.0
11-01-2023, 00:40:39,    206,    0.5,    7.2,   0.00,   0.00, 1002.4,   83.8, -999.0
11-01-2023, 00:40:49,    220,    1.2,    7.2,   0.00,   0.00, 1002.3,   83.8, -999.0
11-01-2023, 00:40:59,    247,    1.2,    7.2,   0.00,   0.00, 1002.3,   83.8, -999.0
11-01-2023, 00:41:09,    249,    4.0,    7.2,   0.00,   0.00, 1002.4,   83.9, -999.0
11-01-2023, 00:41:19,    251,    1.7,    7.2,   0.00,   0.00, 1002.4,   83.9, -999.0
11-01-2023, 00:41:29,    238,    3.4,    7.3,   0.00,   0.00, 1002.4,   83.9, -999.0
11-01-2023, 00:41:39,    235,    2.7,    7.3,   0.00,   0.00, 1002.3,   83.9, -999.0
11-01-2023, 00:41:49,    199,    1.1,    7.2,   0.00,   0.00, 1002.4,   83.8, -999.0
11-01-2023, 00:41:59,    223,    1.4,    7.3,   0.00,   0.00, 1002.4,   84.0, -999.0
11-01-2023, 00:42:09,    169,    1.1,    7.3,   0.00,   0.00, 1002.3,   83.8, -999.0
11-01-2023, 00:42:19,    272,    0.9,    7.3,   0.00,   0.00, 1002.4,   83.8, -999.0
11-01-2023, 00:42:29,    260,    1.1,    7.2,   0.00,   0.00, 1002.4,   83.8, -999.0
11-01-2023, 00:42:39,    259,    1.9,    7.2,   0.00,   0.00, 1002.4,   83.8, -999.0
11-01-2023, 00:42:49,    225,    4.2,    7.2,   0.00,   0.00, 1002.3,   83.8, -999.0
11-01-2023, 00:42:59,    251,    4.9,    7.2,   0.00,   0.00, 1002.4,   83.8, -999.0
11-01-2023, 00:43:09,    260,    2.8,    7.3,   0.00,   0.00, 1002.4,   83.9, -999.0
11-01-2023, 00:43:19,    234,    2.3,    7.2,   0.00,   0.00, 1002.4,   83.9, -999.0
11-01-2023, 00:43:29,    255,    2.4,    7.2,   0.00,   0.00, 1002.4,   83.9, -999.0
11-01-2023, 00:43:39,    246,    1.1,    7.3,   0.00,   0.00, 1002.3,   83.9, -999.0
11-01-2023, 00:43:49,    245,    1.6,    7.2,   0.00,   0.00, 1002.3,   83.7, -999.0
11-01-2023, 00:43:59,    205,    1.6,    7.3,   0.00,   0.00, 1002.4,   83.9, -999.0
11-01-2023, 00:44:09,    224,    1.4,    7.1,   0.00,   0.00, 1002.3,   83.8, -999.0
11-01-2023, 00:44:19,    223,    2.2,    7.2,   0.00,   0.00, 1002.4,   83.7, -999.0
11-01-2023, 00:44:29,    225,    1.4,    7.3,   0.00,   0.00, 1002.4,   83.7, -999.0
11-01-2023, 00:44:39,    253,    1.7,    7.3,   0.00,   0.00, 1002.4,   83.8, -999.0
11-01-2023, 00:44:49,    247,    2.5,    7.3,   0.00,   0.00, 1002.4,   83.7, -999.0
11-01-2023, 00:44:58,    245,    0.8,    7.2,   0.00,   0.00, 1002.3,   83.5, -999.0
11-01-2023, 00:45:09,    221,    0.4,    7.2,   0.00,   0.00, 1002.3,   83.5, -999.0
11-01-2023, 00:45:19,    247,    1.0,    7.1,   0.00,   0.00, 1002.4,   83.6, -999.0
11-01-2023, 00:45:28,    251,    0.8,    7.3,   0.00,   0.00, 1002.4,   83.6, -999.0
11-01-2023, 00:45:39,    265,    1.1,    7.2,   0.00,   0.00, 1002.4,   83.6, -999.0
11-01-2023, 00:45:49,    263,    0.8,    7.2,   0.00,   0.00, 1002.4,   83.7, -999.0
11-01-2023, 00:45:59,    185,    0.9,    7.2,   0.00,   0.00, 1002.4,   83.6, -999.0
11-01-2023, 00:46:08,    235,    1.4,    7.3,   0.00,   0.00, 1002.4,   83.7, -999.0
11-01-2023, 00:46:19,    232,    1.3,    7.3,   0.00,   0.00, 1002.5,   83.7, -999.0
11-01-2023, 00:46:29,    280,    1.0,    7.3,   0.00,   0.00, 1002.4,   83.7, -999.0
11-01-2023, 00:46:38,    276,    1.7,    7.2,   0.00,   0.00, 1002.4,   83.8, -999.0
11-01-2023, 00:46:48,    289,    1.2,    7.1,   0.00,   0.00, 1002.4,   83.7, -999.0